Total_Precipitation_Accumulation
1.78 1.73 1.75 1.69 1.62 1.50 1.40 1.31 1.24 1.18 1.14 1.10 1.08 1.05 1.04 1.03 1.01 1.06 1.05 1.06 1.13 1.16 1.16 1.17 1.17 1.20 1.26 1.23 1.29 1.42 1.60 1.81 1.93 1.73 1.57 1.48 1.43 1.46 1.49 1.38 1.29 1.20 1.10
1.41 1.53 1.64 1.54 1.47 1.39 1.32 1.24 1.18 1.07 1.03 1.03 1.03 0.97 0.87 0.85 0.92 1.00 1.01 1.00 1.09 1.09 1.09 1.15 1.15 1.18 1.22 1.22 1.28 1.36 1.50 1.71 1.85 1.89 1.71 1.57 1.49 1.46 1.48 1.41 1.17 1.05 1.04
1.14 1.20 1.33 1.37 1.34 1.31 1.16 1.08 1.04 1.01 1.00 0.98 0.92 0.90 0.87 0.82 0.84 0.84 0.86 0.87 0.93 1.01 1.04 1.10 1.14 1.18 1.17 1.20 1.26 1.32 1.45 1.58 1.77 1.86 1.76 1.63 1.55 1.48 1.56 1.45 1.31 1.36 1.13
1.02 1.12 1.16 1.20 1.22 1.22 1.11 1.01 0.97 0.94 0.91 0.88 0.80 0.78 0.83 0.81 0.74 0.69 0.71 0.76 0.84 0.87 0.89 1.00 1.06 1.09 1.09 1.17 1.23 1.31 1.40 1.56 1.69 1.76 1.68 1.57 1.52 1.51 1.58 1.61 1.53 1.46 1.33
0.96 1.08 1.16 1.10 1.06 1.12 1.16 1.05 0.93 0.88 0.82 0.81 0.75 0.70 0.74 0.73 0.66 0.67 0.68 0.69 0.75 0.76 0.78 0.86 0.92 0.93 0.92 0.99 1.01 1.14 1.31 1.48 1.57 1.65 1.62 1.58 1.52 1.61 1.64 1.56 1.51 1.48 1.36
0.88 1.03 1.09 1.09 1.07 1.09 1.14 1.08 0.99 0.92 0.89 0.84 0.79 0.74 0.73 0.66 0.66 0.62 0.60 0.63 0.71 0.78 0.85 0.86 0.81 0.81 0.77 0.74 0.80 0.90 1.09 1.32 1.52 1.61 1.58 1.58 1.55 1.60 1.70 1.66 1.61 1.62 1.57
0.92 0.95 1.03 1.08 1.11 1.13 1.11 1.07 1.03 1.02 1.01 0.91 0.80 0.77 0.74 0.66 0.57 0.48 0.48 0.56 0.73 0.85 0.91 0.88 0.75 0.71 0.82 0.83 0.84 0.85 0.96 1.10 1.34 1.58 1.64 1.54 1.54 1.60 1.76 1.82 1.72 1.68 1.63
0.96 0.92 0.93 0.94 0.95 0.95 1.01 1.06 1.04 1.01 0.96 0.89 0.82 0.76 0.71 0.54 0.48 0.45 0.48 0.54 0.67 0.72 0.74 0.80 0.87 0.89 0.83 0.85 0.85 0.96 1.05 1.14 1.22 1.35 1.56 1.50 1.45 1.55 1.68 1.71 1.65 1.57 1.48
0.89 0.86 0.81 0.76 0.78 0.80 0.88 0.99 1.06 1.02 0.92 0.84 0.76 0.73 0.69 0.58 0.52 0.50 0.53 0.59 0.65 0.60 0.56 0.60 0.66 0.72 0.72 0.79 0.90 1.08 1.14 1.25 1.24 1.40 1.43 1.37 1.37 1.41 1.37 1.43 1.66 1.77 1.66
0.79 0.72 0.67 0.69 0.72 0.74 0.80 0.91 0.96 0.99 0.88 0.73 0.65 0.66 0.64 0.62 0.55 0.48 0.47 0.51 0.59 0.57 0.59 0.65 0.63 0.57 0.61 0.73 0.93 1.16 1.31 1.36 1.44 1.59 1.56 1.53 1.44 1.40 1.30 1.33 1.63 1.82 1.76
0.65 0.62 0.63 0.68 0.72 0.71 0.80 0.89 0.87 0.81 0.79 0.71 0.66 0.64 0.58 0.50 0.44 0.37 0.38 0.43 0.51 0.58 0.64 0.71 0.72 0.61 0.57 0.64 0.84 1.06 1.23 1.28 1.50 1.75 1.64 1.47 1.42 1.38 1.34 1.33 1.46 1.55 1.51
0.61 0.64 0.68 0.68 0.64 0.64 0.78 0.86 0.78 0.76 0.74 0.72 0.70 0.64 0.54 0.43 0.36 0.31 0.28 0.30 0.36 0.55 0.70 0.70 0.70 0.66 0.62 0.69 0.84 1.01 1.14 1.33 1.54 1.65 1.45 1.28 1.19 1.17 1.21 1.16 1.14 1.14 1.17
0.59 0.68 0.69 0.65 0.72 0.74 0.72 0.72 0.72 0.73 0.64 0.58 0.59 0.55 0.51 0.45 0.38 0.29 0.25 0.26 0.32 0.47 0.63 0.68 0.64 0.61 0.71 0.92 1.04 1.14 1.29 1.51 1.58 1.45 1.32 1.19 1.07 1.09 1.05 1.03 1.02 1.05 1.03
0.64 0.67 0.64 0.67 0.78 0.78 0.69 0.59 0.56 0.56 0.52 0.49 0.50 0.48 0.49 0.48 0.39 0.32 0.33 0.33 0.37 0.45 0.58 0.71 0.75 0.77 0.93 1.14 1.28 1.38 1.48 1.56 1.43 1.30 1.22 1.10 0.96 1.02 1.06 1.03 1.12 1.14 1.12
0.58 0.62 0.63 0.64 0.69 0.75 0.66 0.51 0.46 0.40 0.33 0.33 0.37 0.37 0.43 0.42 0.31 0.29 0.31 0.35 0.40 0.46 0.55 0.73 0.88 0.92 1.04 1.20 1.33 1.40 1.45 1.46 1.38 1.25 1.17 1.08 0.99 0.97 0.94 0.89 0.98 1.04 1.08
0.56 0.54 0.50 0.53 0.56 0.58 0.58 0.50 0.33 0.20 0.15 0.14 0.15 0.20 0.24 0.25 0.22 0.21 0.24 0.30 0.36 0.46 0.62 0.89 0.97 0.96 1.01 1.11 1.23 1.32 1.31 1.28 1.24 1.24 1.22 1.17 1.07 0.96 0.92 0.88 0.89 0.96 1.04
0.52 0.52 0.43 0.41 0.46 0.48 0.47 0.53 0.47 0.28 0.14 0.10 0.09 0.12 0.15 0.15 0.18 0.19 0.22 0.27 0.34 0.47 0.67 0.87 0.97 1.01 1.05 1.09 1.11 1.14 1.19 1.20 1.15 1.14 1.15 1.09 0.99 0.91 0.89 0.90 0.89 0.93 0.95
0.39 0.36 0.37 0.43 0.42 0.40 0.37 0.37 0.40 0.46 0.41 0.30 0.18 0.15 0.16 0.18 0.20 0.20 0.23 0.29 0.37 0.44 0.64 0.81 0.92 0.98 1.04 1.07 1.06 1.03 1.07 1.11 1.06 0.99 0.98 0.97 0.92 0.89 0.89 0.89 0.89 0.85 0.84
0.36 0.34 0.35 0.37 0.35 0.31 0.28 0.27 0.30 0.37 0.39 0.38 0.32 0.25 0.21 0.22 0.24 0.24 0.29 0.38 0.46 0.49 0.56 0.68 0.79 0.87 0.89 0.90 0.94 0.96 1.00 1.04 0.98 0.93 0.93 0.94 0.94 0.90 0.84 0.76 0.71 0.64 0.69
0.27 0.24 0.27 0.30 0.27 0.24 0.25 0.27 0.27 0.31 0.34 0.35 0.36 0.33 0.29 0.37 0.47 0.43 0.39 0.44 0.49 0.50 0.54 0.64 0.72 0.75 0.75 0.71 0.72 0.76 0.82 0.84 0.85 0.87 0.87 0.84 0.80 0.77 0.71 0.64 0.62 0.63 0.67
0.22 0.21 0.21 0.21 0.19 0.20 0.22 0.22 0.20 0.25 0.29 0.33 0.29 0.27 0.39 0.49 0.56 0.53 0.50 0.55 0.58 0.57 0.56 0.60 0.65 0.67 0.66 0.64 0.62 0.61 0.65 0.70 0.73 0.75 0.78 0.76 0.71 0.66 0.61 0.55 0.53 0.51 0.53
0.18 0.20 0.20 0.17 0.17 0.16 0.17 0.18 0.18 0.22 0.26 0.31 0.30 0.30 0.41 0.46 0.50 0.53 0.55 0.61 0.65 0.63 0.60 0.61 0.62 0.63 0.63 0.61 0.57 0.56 0.58 0.63 0.65 0.66 0.66 0.63 0.60 0.57 0.48 0.45 0.44 0.43 0.44
0.17 0.19 0.19 0.16 0.14 0.14 0.15 0.17 0.17 0.20 0.23 0.26 0.30 0.33 0.38 0.48 0.52 0.57 0.65 0.68 0.68 0.70 0.65 0.60 0.66 0.68 0.61 0.54 0.49 0.47 0.48 0.51 0.52 0.56 0.63 0.62 0.55 0.49 0.43 0.39 0.39 0.41 0.41
0.17 0.17 0.17 0.18 0.18 0.16 0.17 0.16 0.14 0.14 0.18 0.22 0.26 0.27 0.30 0.37 0.44 0.49 0.56 0.62 0.69 0.73 0.71 0.69 0.72 0.66 0.53 0.47 0.42 0.40 0.43 0.47 0.48 0.50 0.53 0.56 0.51 0.43 0.37 0.35 0.35 0.39 0.42
0.14 0.15 0.15 0.16 0.15 0.15 0.16 0.14 0.13 0.14 0.17 0.18 0.19 0.21 0.24 0.28 0.32 0.36 0.42 0.47 0.53 0.60 0.59 0.60 0.60 0.52 0.44 0.39 0.37 0.39 0.45 0.43 0.41 0.46 0.51 0.53 0.46 0.41 0.38 0.34 0.34 0.36 0.38
0.13 0.12 0.12 0.11 0.11 0.11 0.12 0.13 0.12 0.14 0.16 0.17 0.16 0.19 0.22 0.25 0.28 0.33 0.35 0.37 0.40 0.45 0.49 0.51 0.50 0.40 0.32 0.30 0.31 0.31 0.29 0.25 0.24 0.30 0.42 0.46 0.39 0.35 0.37 0.37 0.33 0.36 0.40